STARLINK-34733

Last updated on Tue Dec 16 2025 00:02:05 GMT+0000 (Coordinated Universal Time)

1 66487U 25263C 25349.33335648 .00071088 00000+0 16941-2 0 9993 2 66487 42.9999 110.2578 0001539 266.8449 6.5041 15.40684365 6055
UTC large
Height (km)
Speed (km/s)
/
Latitude / Longitude
Inclination (degrees)
Orbital Period (minutes)
Azimuth
Elevation
Range (km)
Doppler Factor

Next 0 passes for location: London (51.5072 / 0.1276)

Sorry there are no passes over London.